| time (UTC) | temp F | wind direction | speed knots | gust knots | rain 1hr in | rain 24hr in | rain mn in | humidity % | barometer mb |
| 20260506044323 | 55 | 139 | 0.0 | 0.0 | 0.00 | 0.00 | 0.00 | 91 | 1007.2 |
| 20260506043321 | 55 | 310 | 0.0 | 0.0 | 0.00 | 0.00 | 0.00 | 91 | 1007.2 |
| 20260506042340 | 56 | 310 | 0.0 | 0.0 | 0.00 | 0.00 | 0.00 | 90 | 1007.0 |
| 20260506041338 | 56 | 311 | 0.0 | 0.0 | 0.00 | 0.00 | 0.00 | 89 | 1007.1 |
| 20260506040321 | 56 | 307 | 0.0 | 0.0 | 0.00 | 0.00 | 0.00 | 90 | 1007.3 |
| 20260506035326 | 56 | 300 | 0.0 | 0.0 | 0.00 | 0.00 | 0.00 | 91 | 1010.3 |
| 20260506034325 | 56 | 240 | 0.0 | 0.0 | 0.00 | 0.00 | 0.00 | 91 | 1007.5 |
| 20260506033324 | 55 | 241 | 0.0 | 0.0 | 0.00 | 0.00 | 0.00 | 91 | 1007.5 |
| 20260506032343 | 55 | 240 | 0.0 | 0.0 | 0.00 | 0.00 | 0.00 | 90 | 1007.6 |
| 20260506031321 | 56 | 240 | 0.0 | 0.0 | 0.00 | 0.00 | 0.00 | 90 | 1007.4 |
| 20260506030341 | 56 | 240 | 0.0 | 0.0 | 0.00 | 0.00 | 0.00 | 89 | 1007.3 |
| 20260506025322 | 57 | 240 | 0.0 | 0.0 | 0.00 | 0.00 | 0.00 | 89 | 1007.4 |
| 20260506024321 | 57 | 241 | 0.0 | 0.0 | 0.00 | 0.00 | 0.00 | 88 | 1007.4 |
| 20260506023325 | 58 | 241 | 0.0 | 0.0 | 0.00 | 0.00 | 0.00 | 87 | 1007.5 |
| 20260506022322 | 58 | 241 | 0.0 | 0.0 | 0.00 | 0.00 | 0.00 | 87 | 1007.5 |
| 20260506021340 | 59 | 241 | 0.0 | 0.0 | 0.00 | 0.00 | 0.00 | 86 | 1007.5 |
| 20260506020340 | 60 | 240 | 0.0 | 0.0 | 0.00 | 0.00 | 0.00 | 84 | 1007.5 |
| 20260506015338 | 61 | 240 | 0.0 | 0.0 | 0.00 | 0.00 | 0.00 | 82 | 1007.5 |
| 20260506014321 | 62 | 241 | 0.0 | 0.0 | 0.00 | 0.00 | 0.00 | 80 | 1007.5 |
| 20260506013321 | 62 | 240 | 0.0 | 0.0 | 0.00 | 0.00 | 0.00 | 81 | 1007.4 |
| 20260506012346 | 63 | 241 | 0.0 | 0.0 | 0.00 | 0.00 | 0.00 | 80 | 1007.5 |
| 20260506011401 | 64 | 241 | 0.0 | 0.0 | 0.00 | 0.00 | 0.00 | 74 | 1007.4 |
| 20260506010333 | 65 | 240 | 0.0 | 0.0 | 0.00 | 0.00 | 0.00 | 73 | 1007.0 |
| 20260506005337 | 66 | 241 | 0.0 | 0.0 | 0.00 | 0.00 | 0.00 | 70 | 1006.9 |
| 20260506004335 | 67 | 241 | 0.0 | 0.0 | 0.00 | 0.00 | 0.00 | 67 | 1006.7 |
| 20260506003349 | 68 | 240 | 0.0 | 0.0 | 0.00 | 0.00 | 0.00 | 66 | 1006.7 |
| 20260506002331 | 69 | 241 | 0.0 | 0.0 | 0.00 | 0.00 | 0.00 | 62 | 1006.7 |
| 20260506001330 | 71 | 240 | 0.0 | 0.0 | 0.00 | 0.00 | 0.00 | 58 | 1006.6 |
| 20260506000350 | 72 | 241 | 0.0 | 0.0 | 0.00 | 0.00 | 0.00 | 56 | 1006.6 |
| 20260505235329 | 73 | 240 | 0.0 | 6.1 | 0.00 | 0.00 | 0.00 | 55 | 1006.6 |
| 20260505234348 | 73 | 227 | 0.0 | 9.6 | 0.00 | 0.00 | 0.00 | 54 | 1006.4 |
| 20260505233324 | 74 | 238 | 0.9 | 6.1 | 0.00 | 0.00 | 0.00 | 53 | 1006.3 |
| 20260505232323 | 74 | 245 | 0.0 | 3.5 | 0.00 | 0.00 | 0.00 | 54 | 1006.2 |
| 20260505231343 | 75 | 219 | 0.9 | 7.0 | 0.00 | 0.00 | 0.00 | 51 | 1005.8 |
| 20260505230325 | 75 | 221 | 3.5 | 7.8 | 0.00 | 0.00 | 0.00 | 50 | 1005.8 |
| 20260505225324 | 76 | 195 | 3.5 | 9.6 | 0.00 | 0.00 | 0.00 | 49 | 1005.8 |
| 20260505224322 | 76 | 202 | 4.3 | 7.0 | 0.00 | 0.00 | 0.00 | 49 | 1005.7 |
| 20260505223327 | 75 | 202 | 3.5 | 7.0 | 0.00 | 0.00 | 0.00 | 50 | 1005.8 |
| 20260505222346 | 76 | 211 | 2.6 | 7.8 | 0.00 | 0.00 | 0.00 | 49 | 1005.8 |
| 20260505221342 | 76 | 226 | 3.5 | 8.7 | 0.00 | 0.00 | 0.00 | 48 | 1005.7 |
| 20260505220339 | 77 | 206 | 4.3 | 8.7 | 0.00 | 0.00 | 0.00 | 47 | 1005.6 |
| 20260505215342 | 77 | 222 | 2.6 | 8.7 | 0.00 | 0.00 | 0.00 | 46 | 1007.0 |
| 20260505214325 | 77 | 207 | 3.5 | 7.0 | 0.00 | 0.00 | 0.00 | 47 | 1005.4 |
| 20260505213323 | 78 | 194 | 1.7 | 10.4 | 0.00 | 0.00 | 0.00 | 47 | 1008.2 |
| 20260505212322 | 78 | 190 | 2.6 | 11.3 | 0.00 | 0.00 | 0.00 | 46 | 1005.8 |
| 20260505211341 | 77 | 204 | 5.2 | 7.8 | 0.00 | 0.00 | 0.00 | 47 | 1007.4 |
| 20260505210339 | 77 | 220 | 2.6 | 11.3 | 0.00 | 0.00 | 0.00 | 47 | 1005.4 |
| 20260505205337 | 77 | 239 | 5.2 | 12.2 | 0.00 | 0.00 | 0.00 | 45 | 1005.8 |
| 20260505204401 | 77 | 223 | 5.2 | 12.2 | 0.00 | 0.00 | 0.00 | 47 | 1005.3 |
| 20260505203321 | 78 | 250 | 6.1 | 8.7 | 0.00 | 0.00 | 0.00 | 46 | 1005.2 |
| 20260505202346 | 78 | 211 | 5.2 | 17.4 | 0.00 | 0.00 | 0.00 | 46 | 1005.2 |
| 20260505201324 | 78 | 182 | 7.8 | 13.9 | 0.00 | 0.00 | 0.00 | 45 | 1006.8 |
| 20260505200322 | 79 | 200 | 10.4 | 20.9 | 0.00 | 0.00 | 0.00 | 43 | 1005.3 |
| 20260505195342 | 79 | 213 | 7.8 | 18.2 | 0.00 | 0.00 | 0.00 | 46 | 1005.4 |
| 20260505194338 | 80 | 229 | 6.1 | 14.8 | 0.00 | 0.00 | 0.00 | 47 | 1005.0 |
| 20260505193337 | 81 | 199 | 11.3 | 19.1 | 0.00 | 0.00 | 0.00 | 44 | 1005.1 |
| 20260505192342 | 81 | 197 | 7.0 | 23.5 | 0.00 | 0.00 | 0.00 | 43 | 1005.6 |
| 20260505191323 | 80 | 259 | 8.7 | 24.3 | 0.00 | 0.00 | 0.00 | 47 | 1005.5 |
| 20260505190347 | 81 | 227 | 9.6 | 18.2 | 0.00 | 0.00 | 0.00 | 46 | 1005.5 |
| 20260505185323 | 81 | 206 | 12.2 | 25.2 | 0.00 | 0.00 | 0.00 | 47 | 1005.9 |
| 20260505184347 | 82 | 223 | 4.3 | 16.5 | 0.00 | 0.00 | 0.00 | 48 | 1007.7 |
| 20260505183323 | 81 | 259 | 10.4 | 24.3 | 0.00 | 0.00 | 0.00 | 47 | 1006.2 |
| 20260505182321 | 81 | 193 | 8.7 | 15.6 | 0.00 | 0.00 | 0.00 | 46 | 1006.7 |
| 20260505181340 | 80 | 211 | 7.8 | 14.8 | 0.00 | 0.00 | 0.00 | 50 | 1006.4 |
| 20260505180337 | 80 | 244 | 7.0 | 12.2 | 0.00 | 0.00 | 0.00 | 51 | 1006.5 |
| 20260505175324 | 79 | 229 | 6.1 | 13.0 | 0.00 | 0.00 | 0.00 | 50 | 1006.9 |
| 20260505174327 | 81 | 204 | 10.4 | 18.2 | 0.00 | 0.00 | 0.00 | 46 | 1007.2 |
| 20260505173323 | 80 | 208 | 6.1 | 13.0 | 0.00 | 0.00 | 0.00 | 51 | 1006.7 |
| 20260505172323 | 80 | 254 | 5.2 | 20.9 | 0.00 | 0.00 | 0.00 | 52 | 1006.7 |
| 20260505171340 | 81 | 200 | 7.8 | 14.8 | 0.00 | 0.00 | 0.00 | 51 | 1031.4 |
| 20260505170358 | 79 | 190 | 10.4 | 14.8 | 0.00 | 0.00 | 0.00 | 51 | 892.1 |
| 20260505165321 | 78 | 231 | 8.7 | 15.6 | 0.00 | 0.00 | 0.00 | 52 | 1006.9 |
| 20260505164344 | 79 | 203 | 7.8 | 18.2 | 0.00 | 0.00 | 0.00 | 51 | 1007.4 |
| 20260505163321 | 78 | 204 | 10.4 | 21.7 | 0.00 | 0.00 | 0.00 | 53 | 1008.5 |
| 20260505162324 | 78 | 218 | 12.2 | 24.3 | 0.00 | 0.00 | 0.00 | 52 | 1007.6 |
| 20260505161321 | 78 | 253 | 9.6 | 20.0 | 0.00 | 0.00 | 0.00 | 53 | 1007.8 |
| 20260505160333 | 77 | 268 | 13.0 | 19.1 | 0.00 | 0.00 | 0.00 | 52 | 1007.8 |
| 20260505153341 | 77 | 259 | 9.6 | 20.0 | 0.00 | 0.00 | 0.00 | 54 | 925.4 |
| 20260505152338 | 77 | 279 | 7.0 | 13.9 | 0.00 | 0.00 | 0.00 | 54 | 1007.9 |
| 20260505151321 | 77 | 252 | 12.2 | 18.2 | 0.00 | 0.00 | 0.00 | 54 | 1007.9 |
| 20260505150324 | 77 | 228 | 9.6 | 14.8 | 0.00 | 0.00 | 0.00 | 52 | 1007.9 |
| 20260505140320 | 73 | 190 | 7.8 | 13.9 | 0.00 | 0.00 | 0.00 | 56 | 1008.1 |
| 20260505124324 | 65 | 23 | 0.0 | 0.0 | 0.00 | 0.00 | 0.00 | 70 | 1008.7 |
| 20260505123323 | 63 | 22 | 0.0 | 0.0 | 0.00 | 0.00 | 0.00 | 77 | 1008.5 |
| 20260505122322 | 60 | 34 | 0.0 | 0.0 | 0.00 | 0.00 | 0.00 | 79 | 1008.6 |
| 20260505121321 | 57 | 34 | 0.0 | 0.0 | 0.00 | 0.00 | 0.00 | 83 | 1008.6 |
| 20260505120321 | 56 | 34 | 0.0 | 0.0 | 0.00 | 0.00 | 0.00 | 84 | 1008.8 |
| 20260505115339 | 55 | 34 | 0.0 | 0.0 | 0.00 | 0.00 | 0.00 | 87 | 1008.8 |
| 20260505114321 | 53 | 34 | 0.0 | 0.0 | 0.00 | 0.00 | 0.00 | 87 | 1008.7 |
| 20260505113325 | 52 | 34 | 0.0 | 0.0 | 0.00 | 0.00 | 0.00 | 89 | 1008.7 |
| 20260505112324 | 51 | 34 | 0.0 | 0.0 | 0.00 | 0.00 | 0.00 | 91 | 1008.5 |
| 20260505111322 | 50 | 34 | 0.0 | 0.0 | 0.00 | 0.00 | 0.00 | 92 | 1008.3 |
| 20260505110339 | 49 | 34 | 0.0 | 0.0 | 0.00 | 0.00 | 0.00 | 92 | 1008.4 |
| 20260505101322 | 49 | 34 | 0.0 | 0.0 | 0.00 | 0.00 | 0.00 | 92 | 1008.1 |
| 20260505100345 | 49 | 34 | 0.0 | 0.0 | 0.00 | 0.00 | 0.00 | 91 | 1008.0 |
| 20260505095343 | 49 | 34 | 0.0 | 0.0 | 0.00 | 0.00 | 0.00 | 91 | 1008.0 |
| 20260505094321 | 50 | 34 | 0.0 | 0.0 | 0.00 | 0.00 | 0.00 | 90 | 1008.0 |
| 20260505093340 | 50 | 34 | 0.0 | 0.0 | 0.00 | 0.00 | 0.00 | 90 | 1007.9 |
| 20260505092322 | 50 | 34 | 0.0 | 0.0 | 0.00 | 0.00 | 0.00 | 89 | 1007.8 |
| 20260505091322 | 51 | 34 | 0.0 | 0.0 | 0.00 | 0.00 | 0.00 | 88 | 1007.8 |
| 20260505090321 | 51 | 34 | 0.0 | 0.0 | 0.00 | 0.00 | 0.00 | 87 | 1007.8 |
| 20260505085321 | 52 | 34 | 0.0 | 0.0 | 0.00 | 0.00 | 0.00 | 87 | 1007.8 |
| 20260505084320 | 52 | 34 | 0.0 | 0.0 | 0.00 | 0.00 | 0.00 | 86 | 1007.8 |
| 20260505083337 | 52 | 34 | 0.0 | 0.0 | 0.00 | 0.00 | 0.00 | 86 | 1007.8 |
| 20260505082401 | 53 | 34 | 0.0 | 0.0 | 0.00 | 0.00 | 0.00 | 84 | 1007.8 |
| 20260505081322 | 54 | 34 | 0.0 | 0.0 | 0.00 | 0.00 | 0.00 | 82 | 1007.9 |
| 20260505080325 | 54 | 34 | 0.0 | 0.0 | 0.00 | 0.00 | 0.00 | 81 | 1007.8 |
| 20260505075324 | 55 | 34 | 0.0 | 0.0 | 0.00 | 0.00 | 0.00 | 80 | 1007.4 |
| 20260505074322 | 54 | 34 | 0.0 | 0.0 | 0.00 | 0.00 | 0.00 | 81 | 1007.3 |
| 20260505073340 | 54 | 34 | 0.0 | 0.0 | 0.00 | 0.00 | 0.00 | 81 | 1007.3 |
| 20260505072337 | 54 | 33 | 0.0 | 0.0 | 0.00 | 0.00 | 0.00 | 80 | 1007.4 |
| 20260505071400 | 55 | 33 | 0.0 | 2.6 | 0.00 | 0.00 | 0.00 | 79 | 1007.2 |
| 20260505070322 | 56 | 34 | 1.7 | 5.2 | 0.00 | 0.00 | 0.00 | 77 | 1007.3 |
| 20260505065321 | 56 | 322 | 0.0 | 2.6 | 0.00 | 0.00 | 0.00 | 76 | 1009.1 |
| 20260505064324 | 57 | 321 | 0.0 | 0.9 | 0.00 | 0.00 | 0.00 | 75 | 1007.5 |
| 20260505063324 | 58 | 319 | 0.0 | 0.0 | 0.00 | 0.00 | 0.00 | 75 | 1007.3 |
| 20260505062343 | 59 | 307 | 0.0 | 0.0 | 0.00 | 0.00 | 0.00 | 72 | 1007.7 |
| 20260505061320 | 60 | 308 | 0.0 | 0.0 | 0.00 | 0.00 | 0.00 | 71 | 1007.6 |
| 20260505060339 | 62 | 306 | 0.0 | 0.0 | 0.00 | 0.00 | 0.00 | 65 | 1007.7 |
| 20260505055322 | 61 | 305 | 0.0 | 0.0 | 0.00 | 0.00 | 0.00 | 67 | 1008.6 |
| 20260505054321 | 62 | 305 | 0.0 | 0.0 | 0.00 | 0.00 | 0.00 | 65 | 1007.7 |
| 20260505053346 | 63 | 303 | 0.0 | 0.0 | 0.00 | 0.00 | 0.00 | 63 | 1007.7 |
| 20260505052344 | 63 | 303 | 0.0 | 0.0 | 0.00 | 0.00 | 0.00 | 64 | 1007.7 |
| 20260505051322 | 62 | 303 | 0.0 | 0.0 | 0.00 | 0.00 | 0.00 | 64 | 1007.6 |
| 20260505050342 | 62 | 303 | 0.0 | 0.0 | 0.00 | 0.00 | 0.00 | 65 | 1007.7 |